sat.trackr.live / text

‹ back to catalog

STARLINK-3312

NORAD 50850 · 2022-001AZ

PAYLOAD ACTIVE UNKNOWN

§ Identity

Operator
Country
US
Launch date
2022-01-06
Launch site
AFETR
Launch vehicle
Mass (kg)
RCS (m²)

Purposes: comms

External: N2YO · Heavens-Above · Gunter

§ Orbital elements

Epoch: 2026-05-24T10:49:26.812128Z

Period
95.44 min
Inclination
53.2135°
Eccentricity
0.0001370
Mean motion
15.08837298 rev/d
Perigee alt
538.8 km
Apogee alt
540.7 km
Semi-major
6,917.9 km
B*
4.2286e-5
RAAN
159.0156°
Arg perigee
72.3670°
Mean anomaly
287.7472°
Rev number
24,280

§ Raw data

STARLINK-33121 50850U 22001AZ  26144.45100477  .00000385  00000+0  42286-4 0  99992 50850  53.2135 159.0156 0001370  72.3670 287.7472 15.08837298242806

JSON: /api/v1/satellites/50850 · /tle

For live sub-satellite position, see the globe view (requires WebGL).

§ Visibility from observer

Set your observer location to see the next 7 days of passes ≥ 10°. The values pass through the URL so the page stays shareable.

No JS? Fill the form by hand. The geolocation button needs JavaScript.